Location: Nashville
(36.1660°N, 86.7840°W)
Time: 04:51:35
(UTC-05:00)

AO-92 - Pass Details

Date: 25 May 2022
Orbit: 472 x 481 km, 97.4° (Epoch: 26 June)

Event Time Altitude Azimuth Distance (km) Brightness Sun altitude
Exits shadow 23:23:09 21° 318° (NW) 1,128 ? -29.6°
Drops below altitude 10° 23:24:33 10° 331° (NNW) 1,646 ? -29.7°
Sets 23:26:43 0° 340° (NNW) 2,527 ? -29.9°
